Miscellaneous Local Product
Issued by NWS Hastings, NE

Home | Current Version | Previous Version | Text Only | Print | Product List | Glossary On
Versions: 1 2 3 4 5 6 7 8 9 10 11 12 13 14 15 16 17 18 19 20 21 22 23 24 25 26 27 28 29 30 31 32 33 34 35 36 37 38 39 40 41 42 43 44 45 46 47 48 49 50
000
AXUS43 KGID 162202
MISGRI

GID CWA HOURLY WEATHER ROUNDUP
NATIONAL WEATHER SERVICE HASTINGS NE
500 PM CDT WED AUG 16 2017

NOTE: "FAIR" INDICATES FEW OR NO CLOUDS BELOW 12,000 FEET WITH NO
SIGNIFICANT WEATHER AND/OR OBSTRUCTIONS TO VISIBILITY.

...SOUTH CENTRAL NEBRASKA...

CITY           SKY/WX    TMP DP  RH WIND       PRES   REMARKS
GRAND ISLAND   CLOUDY    76  65  68 NW16G24   29.85R
HASTINGS       SUNNY     79  63  57 W15       29.87R
KEARNEY        CLOUDY    75  62  64 N31G39    29.89R
ORD            LGT RAIN  68  64  87 NW10G21   29.88R
YORK           PTSUNNY   75  66  73 W8        29.82S
AURORA         SUNNY     78  63  59 NW12      29.83S
LEXINGTON      RAIN      71  61  69 N9        29.93R
HOLDREGE       MOSUNNY   76  60  56 W10       29.90R
HEBRON         MOSUNNY   82  64  54 NW12G18   29.84R

...NEBRASKA PANHANDLE...

CITY           SKY/WX    TMP DP  RH WIND       PRES   REMARKS
CHADRON        SUNNY     79  45  29 N9        30.01S
ALLIANCE       MOSUNNY   74  50  42 NW13G23   30.04R
SCOTTSBLUFF    MOSUNNY   76  46  34 N10       30.04S
SIDNEY         MOSUNNY   76  52  43 N14G21    30.07R

...WESTERN AND NORTH CENTRAL NEBRASKA...

CITY           SKY/WX    TMP DP  RH WIND       PRES   REMARKS
VALENTINE      CLOUDY    73  58  59 N13       29.95S
AINSWORTH      CLOUDY    66  60  83 NW16G22   29.95R
ONEILL         CLOUDY    65  64  96 NW13      29.86F
BROKEN BOW     LGT RAIN  66  63  90 N9        29.92F
IMPERIAL       CLOUDY    78  54  43 N17       30.00R
NORTH PLATTE   CLOUDY    71  62  73 N13       29.97S
MCCOOK         CLOUDY    73  66  78 N16G25    29.95R

...EASTERN NEBRASKA...

CITY           SKY/WX    TMP DP  RH WIND       PRES   REMARKS
NORFOLK        CLOUDY    72  63  73 NW12      29.80R
SO SIOUX CITY  CLOUDY    72  67  84 NW10      29.75R
TEKAMAH        PTSUNNY   76  66  71 W10G21    29.75R
COLUMBUS       MOSUNNY   76  68  76 NW10      29.82R
ALBION         LGT RAIN  71  64  77 N12G22    29.84R
OMAHA EPPLEY   PTSUNNY   81  64  56 W16       29.76R
OFFUTT AFB     PTSUNNY   82  64  54 W14G21    29.77R
MILLARD        CLOUDY    81  67  64 W13       29.77S
LINCOLN        PTSUNNY   81  65  58 NW10      29.80R
NEBRASKA CITY  PTSUNNY   82  67  61 W12G17    29.80R
BEATRICE       MOSUNNY   82  64  54 W12       29.82R
FALLS CITY     PTSUNNY   83  66  56 SW10      29.79S

...NORTHERN KANSAS...

CITY           SKY/WX    TMP DP  RH WIND       PRES   REMARKS
GOODLAND       MOSUNNY   77  53  43 NW15G21   30.00S
HILL CITY      MOSUNNY   84  62  47 W10       29.90F
NORTON         CLEAR     81  54  39 NW12      29.91
PHILLIPSBURG   SUNNY     84  57  39 W12       29.89S
SMITH CENTER   PTSUNNY   79  63  57 NW12      29.88R
HAYS           SUNNY     83  62  49 NW13      29.89F
RUSSELL        SUNNY     84  58  40 W15       29.87S
CONCORDIA      SUNNY     82  64  54 W9        29.84S
SALINA         SUNNY     86  64  47 NW13      29.84F
TOPEKA         CLOUDY    80  71  74 W6        29.80F



USA.gov is the U.S. government's official web portal to all federal, state and local government web resources and services.